NORTHEAST SUFFOLK  -  Winter Weather Advisory Winter Weather Advisory     Winter Weather Advisory Winter Weather Advisory        NORTHERN NASSAU  -  Winter Weather Advisory Winter Weather Advisory        NORTHWEST SUFFOLK  -  Winter Weather Advisory Winter Weather Advisory     Winter Weather Advisory Winter Weather Advisory        SOUTHEAST SUFFOLK  -  Winter Weather Advisory Winter Weather Advisory     Winter Weather Advisory Winter Weather Advisory        SOUTHERN NASSAU  -  Winter Weather Advisory Winter Weather Advisory        SOUTHWEST SUFFOLK  -  Winter Weather Advisory Winter Weather Advisory     Winter Weather Advisory Winter Weather Advisory      

Active alerts

Northern Nassau
  Details for Northern Nassau Winter Weather Advisory
Southern Nassau
  Details for Southern Nassau Winter Weather Advisory
Northwest Suffolk
  Details for Northwest Suffolk Winter Weather Advisory  +1 additional alert
Southwest Suffolk
  Details for Southwest Suffolk Winter Weather Advisory  +1 additional alert
Northeast Suffolk
  Details for Northeast Suffolk Winter Weather Advisory  +1 additional alert
Southeast Suffolk
  Details for Southeast Suffolk Winter Weather Advisory  +1 additional alert


WXM80 ListenWXM80 Stop

You find our weather info also at:

UK Metoffice

WeatherCloud

Weather Underground

Northeastern Weather Network

AWEKAS

Citizen Weather Observer Program (CWOP)

HAMweather, WeatherForYou, PWS Weather


Weather Underground History page Text

Daily Summary for November 27, 2017 Units:  Both    English   Metric
« Previous Day
Next Day »
Daily Weekly Monthly Yearly Custom
  High: Low: Average:
Temperature: 50.0 °F /  10 °C 37.9 °F /  3.3 °C 44 °F /  6.7 °C
Dew Point: 34.3 °F /  1.3 °C 25.9 °F /  -3.4 °C 30 °F /  -1.1 °C
Humidity: 73 % 48 % 58 %
Wind Speed: 11.5 mph /  18.5 km/h - 4.9 mph /  7.9 km/h
Wind Gust: 21.9 mph /  35.2 km/h - -
Wind:- - WSW
Pressure: 30.32 in /  1026.6 hPa 29.96 in /  1014.4 hPa -
Precipitation: 0.00 in /  0 mm    
Historical Graphs
 
 
Tabular Data for November 27, 2017
Time Temperature Dew Point Pressure Wind Wind Speed Wind Gust Humidity Rainfall Rate (Hourly)
00:03 38.7 °F /  3.7 °C 29.0 °F /  -1.7 °C 29.98 in /  1015.1 hPa SSW 1.3 mph /  2.1 km/h 5.0 mph /  8 km/h 68 % 0.00 in /  0 mm
00:08 38.7 °F /  3.7 °C 29.0 °F /  -1.7 °C 29.98 in /  1015.1 hPa SW 0.6 mph /  1 km/h 3.5 mph /  5.6 km/h 68 % 0.00 in /  0 mm
00:13 38.7 °F /  3.7 °C 29.0 °F /  -1.7 °C 29.98 in /  1015.1 hPa WSW 2.3 mph /  3.7 km/h 3.5 mph /  5.6 km/h 68 % 0.00 in /  0 mm
00:18 38.8 °F /  3.8 °C 29.1 °F /  -1.6 °C 29.98 in /  1015.1 hPa WSW 1.8 mph /  2.9 km/h 3.5 mph /  5.6 km/h 68 % 0.00 in /  0 mm
00:23 38.8 °F /  3.8 °C 29.1 °F /  -1.6 °C 29.98 in /  1015.1 hPa WSW 2.2 mph /  3.5 km/h 5.8 mph /  9.3 km/h 68 % 0.00 in /  0 mm
00:29 38.9 °F /  3.8 °C 29.2 °F /  -1.6 °C 29.98 in /  1015.1 hPa West 2.5 mph /  4 km/h 8.1 mph /  13 km/h 68 % 0.00 in /  0 mm
00:34 39.1 °F /  3.9 °C 29.8 °F /  -1.2 °C 29.98 in /  1015.1 hPa WSW 2.2 mph /  3.5 km/h 4.6 mph /  7.4 km/h 69 % 0.00 in /  0 mm
00:39 39.2 °F /  4 °C 29.5 °F /  -1.4 °C 29.97 in /  1014.8 hPa SW 5.8 mph /  9.3 km/h 8.1 mph /  13 km/h 68 % 0.00 in /  0 mm
00:44 39.3 °F /  4.1 °C 29.6 °F /  -1.3 °C 29.97 in /  1014.8 hPa WSW 3.2 mph /  5.1 km/h 6.0 mph /  9.7 km/h 68 % 0.00 in /  0 mm
00:49 39.5 °F /  4.2 °C 29.4 °F /  -1.4 °C 29.97 in /  1014.8 hPa SW 2.9 mph /  4.7 km/h 4.6 mph /  7.4 km/h 67 % 0.00 in /  0 mm
00:54 39.6 °F /  4.2 °C 29.5 °F /  -1.4 °C 29.97 in /  1014.8 hPa WNW 3.3 mph /  5.3 km/h 6.9 mph /  11.1 km/h 67 % 0.00 in /  0 mm
00:59 39.8 °F /  4.3 °C 29.7 °F /  -1.3 °C 29.97 in /  1014.8 hPa WSW 3.1 mph /  5 km/h 7.0 mph /  11.3 km/h 67 % 0.00 in /  0 mm
01:04 40.1 °F /  4.5 °C 29.6 °F /  -1.3 °C 29.97 in /  1014.8 hPa SW 3.6 mph /  5.8 km/h 11.5 mph /  18.5 km/h 66 % 0.00 in /  0 mm
01:09 40.3 °F /  4.6 °C 29.8 °F /  -1.2 °C 29.97 in /  1014.8 hPa NW 4.8 mph /  7.7 km/h 12.0 mph /  19.3 km/h 66 % 0.00 in /  0 mm
01:14 40.5 °F /  4.7 °C 29.7 °F /  -1.3 °C 29.97 in /  1014.8 hPa SW 3.7 mph /  6 km/h 4.6 mph /  7.4 km/h 65 % 0.00 in /  0 mm
01:19 40.6 °F /  4.8 °C 29.7 °F /  -1.3 °C 29.97 in /  1014.8 hPa South 3.9 mph /  6.3 km/h 6.9 mph /  11.1 km/h 65 % 0.00 in /  0 mm
01:24 40.7 °F /  4.8 °C 30.2 °F /  -1 °C 29.98 in /  1015.1 hPa West 9.3 mph /  15 km/h 10.4 mph /  16.7 km/h 66 % 0.00 in /  0 mm
01:29 40.9 °F /  4.9 °C 30.0 °F /  -1.1 °C 29.98 in /  1015.1 hPa SW 5.6 mph /  9 km/h 16.1 mph /  25.9 km/h 65 % 0.00 in /  0 mm
01:34 40.9 °F /  4.9 °C 30.0 °F /  -1.1 °C 29.98 in /  1015.1 hPa SSW 2.7 mph /  4.3 km/h 8.1 mph /  13 km/h 65 % 0.00 in /  0 mm
01:39 41.0 °F /  5 °C 30.1 °F /  -1.1 °C 29.97 in /  1014.8 hPa South 1.8 mph /  2.9 km/h 11.5 mph /  18.5 km/h 65 % 0.00 in /  0 mm
01:45 41.0 °F /  5 °C 29.7 °F /  -1.3 °C 29.97 in /  1014.8 hPa SW 5.5 mph /  8.9 km/h 11.5 mph /  18.5 km/h 64 % 0.00 in /  0 mm
01:50 41.0 °F /  5 °C 30.1 °F /  -1.1 °C 29.97 in /  1014.8 hPa West 3.4 mph /  5.5 km/h 8.1 mph /  13 km/h 65 % 0.00 in /  0 mm
01:55 41.1 °F /  5.1 °C 29.8 °F /  -1.2 °C 29.97 in /  1014.8 hPa NW 5.4 mph /  8.7 km/h 10.4 mph /  16.7 km/h 64 % 0.00 in /  0 mm
02:00 41.1 °F /  5.1 °C 30.2 °F /  -1 °C 29.98 in /  1015.1 hPa West 2.4 mph /  3.9 km/h 9.0 mph /  14.5 km/h 65 % 0.00 in /  0 mm
02:05 41.0 °F /  5 °C 29.7 °F /  -1.3 °C 29.97 in /  1014.8 hPa WSW 4.3 mph /  6.9 km/h 9.2 mph /  14.8 km/h 64 % 0.00 in /  0 mm
02:06 41.1 °F /  5.1 °C 29.8 °F /  -1.2 °C 29.97 in /  1014.8 hPa WSW 6.0 mph /  9.7 km/h 12.0 mph /  19.3 km/h 64 % 0.00 in /  0 mm
02:11 41.0 °F /  5 °C 30.1 °F /  -1.1 °C 29.97 in /  1014.8 hPa SW 2.0 mph /  3.2 km/h 6.0 mph /  9.7 km/h 65 % 0.00 in /  0 mm
02:16 41.0 °F /  5 °C 30.1 °F /  -1.1 °C 29.97 in /  1014.8 hPa WSW 7.0 mph /  11.3 km/h 12.0 mph /  19.3 km/h 65 % 0.00 in /  0 mm
02:21 40.9 °F /  4.9 °C 30.0 °F /  -1.1 °C 29.97 in /  1014.8 hPa WSW 7.0 mph /  11.3 km/h 16.0 mph /  25.7 km/h 65 % 0.00 in /  0 mm
02:26 40.9 °F /  4.9 °C 29.7 °F /  -1.3 °C 29.97 in /  1014.8 hPa SW 3.0 mph /  4.8 km/h 10.0 mph /  16.1 km/h 64 % 0.00 in /  0 mm
02:31 40.9 °F /  4.9 °C 29.7 °F /  -1.3 °C 29.97 in /  1014.8 hPa SW 5.0 mph /  8 km/h 9.0 mph /  14.5 km/h 64 % 0.00 in /  0 mm
02:36 40.8 °F /  4.9 °C 29.6 °F /  -1.3 °C 29.97 in /  1014.8 hPa SW 3.0 mph /  4.8 km/h 8.0 mph /  12.9 km/h 64 % 0.00 in /  0 mm
02:41 40.7 °F /  4.8 °C 29.8 °F /  -1.2 °C 29.97 in /  1014.8 hPa SW 2.0 mph /  3.2 km/h 6.0 mph /  9.7 km/h 65 % 0.00 in /  0 mm
02:46 40.6 °F /  4.8 °C 29.7 °F /  -1.3 °C 29.97 in /  1014.8 hPa SW 5.0 mph /  8 km/h 9.0 mph /  14.5 km/h 65 % 0.00 in /  0 mm
02:51 40.5 °F /  4.7 °C 29.7 °F /  -1.3 °C 29.96 in /  1014.4 hPa WSW 3.0 mph /  4.8 km/h 7.0 mph /  11.3 km/h 65 % 0.00 in /  0 mm
02:56 40.4 °F /  4.7 °C 29.6 °F /  -1.3 °C 29.96 in /  1014.4 hPa WSW 3.0 mph /  4.8 km/h 9.0 mph /  14.5 km/h 65 % 0.00 in /  0 mm
03:01 40.3 °F /  4.6 °C 29.8 °F /  -1.2 °C 29.97 in /  1014.8 hPa West 2.8 mph /  4.5 km/h 9.2 mph /  14.8 km/h 66 % 0.00 in /  0 mm
03:06 40.3 °F /  4.6 °C 29.8 °F /  -1.2 °C 29.97 in /  1014.8 hPa SW 1.1 mph /  1.8 km/h 3.5 mph /  5.6 km/h 66 % 0.00 in /  0 mm
03:11 40.2 °F /  4.6 °C 30.1 °F /  -1.1 °C 29.96 in /  1014.4 hPa SW 3.4 mph /  5.5 km/h 6.9 mph /  11.1 km/h 67 % 0.00 in /  0 mm
03:16 40.2 °F /  4.6 °C 30.1 °F /  -1.1 °C 29.96 in /  1014.4 hPa WSW 4.2 mph /  6.8 km/h 8.1 mph /  13 km/h 67 % 0.00 in /  0 mm
03:21 40.2 °F /  4.6 °C 30.1 °F /  -1.1 °C 29.96 in /  1014.4 hPa West 6.2 mph /  10 km/h 13.0 mph /  20.9 km/h 67 % 0.00 in /  0 mm
03:26 40.2 °F /  4.6 °C 30.1 °F /  -1.1 °C 29.96 in /  1014.4 hPa SSW 2.5 mph /  4 km/h 5.0 mph /  8 km/h 67 % 0.00 in /  0 mm
03:31 40.1 °F /  4.5 °C 30.0 °F /  -1.1 °C 29.96 in /  1014.4 hPa SSW 6.6 mph /  10.6 km/h 10.4 mph /  16.7 km/h 67 % 0.00 in /  0 mm
03:36 40.1 °F /  4.5 °C 29.6 °F /  -1.3 °C 29.97 in /  1014.8 hPa WSW 2.2 mph /  3.5 km/h 7.0 mph /  11.3 km/h 66 % 0.00 in /  0 mm
03:41 40.1 °F /  4.5 °C 29.6 °F /  -1.3 °C 29.97 in /  1014.8 hPa WSW 3.1 mph /  5 km/h 4.6 mph /  7.4 km/h 66 % 0.00 in /  0 mm
03:46 40.0 °F /  4.4 °C 29.6 °F /  -1.3 °C 29.97 in /  1014.8 hPa SW 3.5 mph /  5.6 km/h 5.0 mph /  8 km/h 66 % 0.00 in /  0 mm
03:47 40.0 °F /  4.4 °C 29.6 °F /  -1.3 °C 29.97 in /  1014.8 hPa SW 3.1 mph /  5 km/h 6.9 mph /  11.1 km/h 66 % 0.00 in /  0 mm
03:52 39.9 °F /  4.4 °C 29.5 °F /  -1.4 °C 29.97 in /  1014.8 hPa WSW 2.7 mph /  4.3 km/h 3.5 mph /  5.6 km/h 66 % 0.00 in /  0 mm
03:57 39.8 °F /  4.3 °C 29.4 °F /  -1.4 °C 29.97 in /  1014.8 hPa SSW 2.0 mph /  3.2 km/h 4.6 mph /  7.4 km/h 66 % 0.00 in /  0 mm
04:02 39.7 °F /  4.3 °C 29.3 °F /  -1.5 °C 29.97 in /  1014.8 hPa South 3.2 mph /  5.1 km/h 6.9 mph /  11.1 km/h 66 % 0.00 in /  0 mm
04:08 39.6 °F /  4.2 °C 29.2 °F /  -1.6 °C 29.97 in /  1014.8 hPa SSW 3.6 mph /  5.8 km/h 5.8 mph /  9.3 km/h 66 % 0.00 in /  0 mm
04:13 39.5 °F /  4.2 °C 29.1 °F /  -1.6 °C 29.97 in /  1014.8 hPa WSW 3.3 mph /  5.3 km/h 6.9 mph /  11.1 km/h 66 % 0.00 in /  0 mm
04:18 39.4 °F /  4.1 °C 29.0 °F /  -1.7 °C 29.97 in /  1014.8 hPa SW 1.4 mph /  2.3 km/h 5.8 mph /  9.3 km/h 66 % 0.00 in /  0 mm
04:23 39.3 °F /  4.1 °C 28.9 °F /  -1.7 °C 29.97 in /  1014.8 hPa SSW 1.5 mph /  2.4 km/h 3.5 mph /  5.6 km/h 66 % 0.00 in /  0 mm
04:28 39.1 °F /  3.9 °C 28.7 °F /  -1.8 °C 29.97 in /  1014.8 hPa SSW 3.4 mph /  5.5 km/h 5.8 mph /  9.3 km/h 66 % 0.00 in /  0 mm
04:33 39.0 °F /  3.9 °C 29.0 °F /  -1.7 °C 29.97 in /  1014.8 hPa SSW 3.8 mph /  6.1 km/h 6.9 mph /  11.1 km/h 67 % 0.00 in /  0 mm
04:38 38.9 °F /  3.8 °C 28.9 °F /  -1.7 °C 29.97 in /  1014.8 hPa WSW 3.1 mph /  5 km/h 4.6 mph /  7.4 km/h 67 % 0.00 in /  0 mm
04:43 38.7 °F /  3.7 °C 28.7 °F /  -1.8 °C 29.97 in /  1014.8 hPa SSW 1.3 mph /  2.1 km/h 4.0 mph /  6.4 km/h 67 % 0.00 in /  0 mm
04:48 38.6 °F /  3.7 °C 28.6 °F /  -1.9 °C 29.97 in /  1014.8 hPa SSW 2.0 mph /  3.2 km/h 4.6 mph /  7.4 km/h 67 % 0.00 in /  0 mm
04:58 38.4 °F /  3.6 °C 28.8 °F /  -1.8 °C 29.98 in /  1015.1 hPa SW 3.3 mph /  5.3 km/h 8.1 mph /  13 km/h 68 % 0.00 in /  0 mm
05:03 38.3 °F /  3.5 °C 28.7 °F /  -1.8 °C 29.98 in /  1015.1 hPa SSW 1.5 mph /  2.4 km/h 4.6 mph /  7.4 km/h 68 % 0.00 in /  0 mm
05:08 38.3 °F /  3.5 °C 28.7 °F /  -1.8 °C 29.98 in /  1015.1 hPa SW 2.5 mph /  4 km/h 4.6 mph /  7.4 km/h 68 % 0.00 in /  0 mm
05:13 38.2 °F /  3.4 °C 28.6 °F /  -1.9 °C 29.98 in /  1015.1 hPa SW 1.8 mph /  2.9 km/h 3.5 mph /  5.6 km/h 68 % 0.00 in /  0 mm
05:18 38.2 °F /  3.4 °C 28.6 °F /  -1.9 °C 29.98 in /  1015.1 hPa WSW 1.3 mph /  2.1 km/h 3.5 mph /  5.6 km/h 68 % 0.00 in /  0 mm
05:23 38.1 °F /  3.4 °C 28.5 °F /  -1.9 °C 29.98 in /  1015.1 hPa WSW 0.9 mph /  1.4 km/h 6.0 mph /  9.7 km/h 68 % 0.00 in /  0 mm
05:28 38.0 °F /  3.3 °C 28.7 °F /  -1.8 °C 29.99 in /  1015.5 hPa SW 1.1 mph /  1.8 km/h 3.5 mph /  5.6 km/h 69 % 0.00 in /  0 mm
05:33 38.0 °F /  3.3 °C 28.7 °F /  -1.8 °C 29.99 in /  1015.5 hPa SW 1.2 mph /  1.9 km/h 3.0 mph /  4.8 km/h 69 % 0.00 in /  0 mm
05:38 38.0 °F /  3.3 °C 28.7 °F /  -1.8 °C 29.99 in /  1015.5 hPa SW 1.5 mph /  2.4 km/h 3.5 mph /  5.6 km/h 69 % 0.00 in /  0 mm
05:43 37.9 °F /  3.3 °C 29.0 °F /  -1.7 °C 29.99 in /  1015.5 hPa SW 1.5 mph /  2.4 km/h 3.5 mph /  5.6 km/h 70 % 0.00 in /  0 mm
05:48 37.9 °F /  3.3 °C 29.3 °F /  -1.5 °C 29.99 in /  1015.5 hPa WSW 2.2 mph /  3.5 km/h 3.5 mph /  5.6 km/h 71 % 0.00 in /  0 mm
05:53 38.0 °F /  3.3 °C 29.8 °F /  -1.2 °C 30.00 in /  1015.8 hPa West 3.8 mph /  6.1 km/h 7.0 mph /  11.3 km/h 72 % 0.00 in /  0 mm
05:58 38.2 °F /  3.4 °C 30.3 °F /  -0.9 °C 30.00 in /  1015.8 hPa SW 5.1 mph /  8.2 km/h 8.1 mph /  13 km/h 73 % 0.00 in /  0 mm
06:02 38.5 °F /  3.6 °C 30.6 °F /  -0.8 °C 30.00 in /  1015.8 hPa WSW 3.3 mph /  5.3 km/h 9.2 mph /  14.8 km/h 73 % 0.00 in /  0 mm
06:07 38.9 °F /  3.8 °C 30.6 °F /  -0.8 °C 30.00 in /  1015.8 hPa WSW 5.0 mph /  8 km/h 5.8 mph /  9.3 km/h 72 % 0.00 in /  0 mm
06:12 39.3 °F /  4.1 °C 30.7 °F /  -0.7 °C 30.00 in /  1015.8 hPa West 3.9 mph /  6.3 km/h 11.5 mph /  18.5 km/h 71 % 0.00 in /  0 mm
06:17 39.7 °F /  4.3 °C 31.1 °F /  -0.5 °C 30.01 in /  1016.1 hPa WNW 5.0 mph /  8 km/h 5.8 mph /  9.3 km/h 71 % 0.00 in /  0 mm
06:23 40.0 °F /  4.4 °C 31.0 °F /  -0.6 °C 30.00 in /  1015.8 hPa WSW 4.8 mph /  7.7 km/h 5.8 mph /  9.3 km/h 70 % 0.00 in /  0 mm
06:28 40.2 °F /  4.6 °C 31.2 °F /  -0.4 °C 30.01 in /  1016.1 hPa WNW 1.7 mph /  2.7 km/h 3.5 mph /  5.6 km/h 70 % 0.00 in /  0 mm
06:33 40.4 °F /  4.7 °C 31.4 °F /  -0.3 °C 30.01 in /  1016.1 hPa SW 6.6 mph /  10.6 km/h 10.4 mph /  16.7 km/h 70 % 0.00 in /  0 mm
06:38 40.6 °F /  4.8 °C 31.2 °F /  -0.4 °C 30.01 in /  1016.1 hPa WSW 6.8 mph /  10.9 km/h 13.8 mph /  22.2 km/h 69 % 0.00 in /  0 mm
06:43 40.8 °F /  4.9 °C 31.4 °F /  -0.3 °C 30.01 in /  1016.1 hPa SW 6.2 mph /  10 km/h 11.5 mph /  18.5 km/h 69 % 0.00 in /  0 mm
06:48 41.0 °F /  5 °C 31.2 °F /  -0.4 °C 30.01 in /  1016.1 hPa WSW 8.9 mph /  14.3 km/h 12.0 mph /  19.3 km/h 68 % 0.00 in /  0 mm
06:53 41.2 °F /  5.1 °C 31.4 °F /  -0.3 °C 30.01 in /  1016.1 hPa WNW 3.9 mph /  6.3 km/h 10.4 mph /  16.7 km/h 68 % 0.00 in /  0 mm
06:58 41.4 °F /  5.2 °C 31.3 °F /  -0.4 °C 30.02 in /  1016.5 hPa WNW 6.4 mph /  10.3 km/h 11.5 mph /  18.5 km/h 67 % 0.00 in /  0 mm
07:03 41.5 °F /  5.3 °C 31.4 °F /  -0.3 °C 30.02 in /  1016.5 hPa West 10.0 mph /  16.1 km/h 15.0 mph /  24.1 km/h 67 % 0.00 in /  0 mm
07:08 41.6 °F /  5.3 °C 31.4 °F /  -0.3 °C 30.02 in /  1016.5 hPa WNW 6.4 mph /  10.3 km/h 10.4 mph /  16.7 km/h 67 % 0.00 in /  0 mm
07:13 41.6 °F /  5.3 °C 31.4 °F /  -0.3 °C 30.02 in /  1016.5 hPa West 5.5 mph /  8.9 km/h 10.4 mph /  16.7 km/h 67 % 0.00 in /  0 mm
07:18 41.6 °F /  5.3 °C 31.4 °F /  -0.3 °C 30.02 in /  1016.5 hPa SW 6.6 mph /  10.6 km/h 14.0 mph /  22.5 km/h 67 % 0.00 in /  0 mm
07:23 41.7 °F /  5.4 °C 31.5 °F /  -0.3 °C 30.03 in /  1016.8 hPa SW 7.1 mph /  11.4 km/h 10.0 mph /  16.1 km/h 67 % 0.00 in /  0 mm
07:28 41.8 °F /  5.4 °C 31.6 °F /  -0.2 °C 30.03 in /  1016.8 hPa West 3.6 mph /  5.8 km/h 8.0 mph /  12.9 km/h 67 % 0.00 in /  0 mm
07:33 41.8 °F /  5.4 °C 31.6 °F /  -0.2 °C 30.03 in /  1016.8 hPa West 9.3 mph /  15 km/h 13.0 mph /  20.9 km/h 67 % 0.00 in /  0 mm
07:38 41.8 °F /  5.4 °C 31.6 °F /  -0.2 °C 30.03 in /  1016.8 hPa WSW 3.3 mph /  5.3 km/h 3.5 mph /  5.6 km/h 67 % 0.00 in /  0 mm
07:43 41.9 °F /  5.5 °C 31.7 °F /  -0.2 °C 30.04 in /  1017.2 hPa WNW 5.2 mph /  8.4 km/h 8.1 mph /  13 km/h 67 % 0.00 in /  0 mm
07:48 41.9 °F /  5.5 °C 31.7 °F /  -0.2 °C 30.04 in /  1017.2 hPa WSW 8.2 mph /  13.2 km/h 11.5 mph /  18.5 km/h 67 % 0.00 in /  0 mm
07:53 42.0 °F /  5.6 °C 32.2 °F /  0.1 °C 30.05 in /  1017.5 hPa WSW 4.6 mph /  7.4 km/h 9.2 mph /  14.8 km/h 68 % 0.00 in /  0 mm
07:58 42.2 °F /  5.7 °C 32.0 °F /  0 °C 30.04 in /  1017.2 hPa WSW 7.2 mph /  11.6 km/h 12.0 mph /  19.3 km/h 67 % 0.00 in /  0 mm
08:03 42.3 °F /  5.7 °C 32.1 °F /  0.1 °C 30.05 in /  1017.5 hPa WNW 6.2 mph /  10 km/h 10.4 mph /  16.7 km/h 67 % 0.00 in /  0 mm
08:08 42.4 °F /  5.8 °C 32.2 °F /  0.1 °C 30.05 in /  1017.5 hPa NW 5.0 mph /  8 km/h 11.5 mph /  18.5 km/h 67 % 0.00 in /  0 mm
08:13 42.6 °F /  5.9 °C 32.4 °F /  0.2 °C 30.05 in /  1017.5 hPa WNW 6.9 mph /  11.1 km/h 12.7 mph /  20.4 km/h 67 % 0.00 in /  0 mm
08:18 42.8 °F /  6 °C 32.2 °F /  0.1 °C 30.05 in /  1017.5 hPa SSW 4.4 mph /  7.1 km/h 12.7 mph /  20.4 km/h 66 % 0.00 in /  0 mm
08:23 43.0 °F /  6.1 °C 32.8 °F /  0.4 °C 30.05 in /  1017.5 hPa SW 8.7 mph /  14 km/h 10.4 mph /  16.7 km/h 67 % 0.00 in /  0 mm
08:28 43.2 °F /  6.2 °C 32.6 °F /  0.3 °C 30.05 in /  1017.5 hPa WSW 5.8 mph /  9.3 km/h 11.5 mph /  18.5 km/h 66 % 0.00 in /  0 mm
08:34 43.4 °F /  6.3 °C 32.8 °F /  0.4 °C 30.05 in /  1017.5 hPa WNW 5.2 mph /  8.4 km/h 10.4 mph /  16.7 km/h 66 % 0.00 in /  0 mm
08:39 43.6 °F /  6.4 °C 33.0 °F /  0.6 °C 30.05 in /  1017.5 hPa West 6.0 mph /  9.7 km/h 16.1 mph /  25.9 km/h 66 % 0.00 in /  0 mm
08:44 43.9 °F /  6.6 °C 32.9 °F /  0.5 °C 30.05 in /  1017.5 hPa West 6.9 mph /  11.1 km/h 10.4 mph /  16.7 km/h 65 % 0.00 in /  0 mm
08:47 44.0 °F /  6.7 °C 33.0 °F /  0.6 °C 30.05 in /  1017.5 hPa West 6.7 mph /  10.8 km/h 16.1 mph /  25.9 km/h 65 % 0.00 in /  0 mm
08:52 44.4 °F /  6.9 °C 33.0 °F /  0.6 °C 30.05 in /  1017.5 hPa West 8.0 mph /  12.9 km/h 13.8 mph /  22.2 km/h 64 % 0.00 in /  0 mm
08:57 44.7 °F /  7.1 °C 33.3 °F /  0.7 °C 30.05 in /  1017.5 hPa NW 9.3 mph /  15 km/h 17.3 mph /  27.8 km/h 64 % 0.00 in /  0 mm
09:02 45.1 °F /  7.3 °C 33.6 °F /  0.9 °C 30.05 in /  1017.5 hPa NW 5.5 mph /  8.9 km/h 10.4 mph /  16.7 km/h 64 % 0.00 in /  0 mm
09:07 45.4 °F /  7.4 °C 33.5 °F /  0.8 °C 30.05 in /  1017.5 hPa West 7.0 mph /  11.3 km/h 12.0 mph /  19.3 km/h 63 % 0.00 in /  0 mm
09:12 45.8 °F /  7.7 °C 33.1 °F /  0.6 °C 30.05 in /  1017.5 hPa South 7.0 mph /  11.3 km/h 10.4 mph /  16.7 km/h 61 % 0.00 in /  0 mm
09:17 46.1 °F /  7.8 °C 33.4 °F /  0.8 °C 30.05 in /  1017.5 hPa West 7.2 mph /  11.6 km/h 11.5 mph /  18.5 km/h 61 % 0.00 in /  0 mm
09:22 46.4 °F /  8 °C 33.3 °F /  0.7 °C 30.05 in /  1017.5 hPa WNW 5.2 mph /  8.4 km/h 8.1 mph /  13 km/h 60 % 0.00 in /  0 mm
09:27 46.5 °F /  8.1 °C 32.9 °F /  0.5 °C 30.05 in /  1017.5 hPa WNW 8.5 mph /  13.7 km/h 13.0 mph /  20.9 km/h 59 % 0.00 in /  0 mm
09:32 46.7 °F /  8.2 °C 33.1 °F /  0.6 °C 30.05 in /  1017.5 hPa WNW 3.0 mph /  4.8 km/h 9.2 mph /  14.8 km/h 59 % 0.00 in /  0 mm
09:37 46.9 °F /  8.3 °C 33.3 °F /  0.7 °C 30.05 in /  1017.5 hPa WNW 3.8 mph /  6.1 km/h 10.4 mph /  16.7 km/h 59 % 0.00 in /  0 mm
09:42 47.2 °F /  8.4 °C 34.0 °F /  1.1 °C 30.05 in /  1017.5 hPa SSW 8.4 mph /  13.5 km/h 11.5 mph /  18.5 km/h 60 % 0.00 in /  0 mm
09:47 47.5 °F /  8.6 °C 34.3 °F /  1.3 °C 30.05 in /  1017.5 hPa SW 4.7 mph /  7.6 km/h 9.2 mph /  14.8 km/h 60 % 0.00 in /  0 mm
09:52 47.8 °F /  8.8 °C 33.7 °F /  0.9 °C 30.05 in /  1017.5 hPa WNW 10.0 mph /  16.1 km/h 17.3 mph /  27.8 km/h 58 % 0.00 in /  0 mm
09:57 47.9 °F /  8.8 °C 33.4 °F /  0.8 °C 30.05 in /  1017.5 hPa WSW 5.8 mph /  9.3 km/h 12.0 mph /  19.3 km/h 57 % 0.00 in /  0 mm
10:02 48.0 °F /  8.9 °C 33.0 °F /  0.6 °C 30.05 in /  1017.5 hPa WSW 4.1 mph /  6.6 km/h 12.7 mph /  20.4 km/h 56 % 0.00 in /  0 mm
10:07 48.2 °F /  9 °C 33.2 °F /  0.7 °C 30.05 in /  1017.5 hPa NW 4.1 mph /  6.6 km/h 8.1 mph /  13 km/h 56 % 0.00 in /  0 mm
10:12 48.3 °F /  9.1 °C 32.9 °F /  0.5 °C 30.05 in /  1017.5 hPa WNW 8.1 mph /  13 km/h 11.5 mph /  18.5 km/h 55 % 0.00 in /  0 mm
10:18 48.4 °F /  9.1 °C 31.6 °F /  -0.2 °C 30.05 in /  1017.5 hPa NW 9.0 mph /  14.5 km/h 20.7 mph /  33.3 km/h 52 % 0.00 in /  0 mm
10:23 48.5 °F /  9.2 °C 32.1 °F /  0.1 °C 30.05 in /  1017.5 hPa NW 6.6 mph /  10.6 km/h 15.0 mph /  24.1 km/h 53 % 0.00 in /  0 mm
10:28 48.6 °F /  9.2 °C 32.2 °F /  0.1 °C 30.05 in /  1017.5 hPa WNW 11.5 mph /  18.5 km/h 21.9 mph /  35.2 km/h 53 % 0.00 in /  0 mm
10:33 48.6 °F /  9.2 °C 32.2 °F /  0.1 °C 30.05 in /  1017.5 hPa WNW 9.0 mph /  14.5 km/h 15.0 mph /  24.1 km/h 53 % 0.00 in /  0 mm
10:38 48.6 °F /  9.2 °C 32.7 °F /  0.4 °C 30.04 in /  1017.2 hPa West 11.0 mph /  17.7 km/h 17.3 mph /  27.8 km/h 54 % 0.00 in /  0 mm
10:43 48.7 °F /  9.3 °C 32.3 °F /  0.2 °C 30.04 in /  1017.2 hPa WSW 10.3 mph /  16.6 km/h 20.0 mph /  32.2 km/h 53 % 0.00 in /  0 mm
10:48 48.7 °F /  9.3 °C 32.3 °F /  0.2 °C 30.05 in /  1017.5 hPa West 6.8 mph /  10.9 km/h 12.0 mph /  19.3 km/h 53 % 0.00 in /  0 mm
10:53 48.5 °F /  9.2 °C 31.7 °F /  -0.2 °C 30.04 in /  1017.2 hPa NW 9.0 mph /  14.5 km/h 19.6 mph /  31.5 km/h 52 % 0.00 in /  0 mm
10:58 48.4 °F /  9.1 °C 32.0 °F /  0 °C 30.04 in /  1017.2 hPa West 4.9 mph /  7.9 km/h 14.0 mph /  22.5 km/h 53 % 0.00 in /  0 mm
11:03 48.2 °F /  9 °C 31.9 °F /  -0.1 °C 30.05 in /  1017.5 hPa West 4.7 mph /  7.6 km/h 10.4 mph /  16.7 km/h 53 % 0.00 in /  0 mm
11:08 48.1 °F /  8.9 °C 31.8 °F /  -0.1 °C 30.05 in /  1017.5 hPa SW 5.1 mph /  8.2 km/h 11.5 mph /  18.5 km/h 53 % 0.00 in /  0 mm
11:13 48.0 °F /  8.9 °C 31.7 °F /  -0.2 °C 30.05 in /  1017.5 hPa WSW 6.0 mph /  9.7 km/h 13.8 mph /  22.2 km/h 53 % 0.00 in /  0 mm
11:18 48.0 °F /  8.9 °C 31.7 °F /  -0.2 °C 30.04 in /  1017.2 hPa WNW 9.6 mph /  15.4 km/h 15.0 mph /  24.1 km/h 53 % 0.00 in /  0 mm
11:23 48.0 °F /  8.9 °C 31.7 °F /  -0.2 °C 30.04 in /  1017.2 hPa WSW 7.1 mph /  11.4 km/h 13.0 mph /  20.9 km/h 53 % 0.00 in /  0 mm
11:28 48.2 °F /  9 °C 32.3 °F /  0.2 °C 30.04 in /  1017.2 hPa West 6.2 mph /  10 km/h 13.0 mph /  20.9 km/h 54 % 0.00 in /  0 mm
11:33 48.3 °F /  9.1 °C 31.5 °F /  -0.3 °C 30.04 in /  1017.2 hPa West 5.3 mph /  8.5 km/h 12.0 mph /  19.3 km/h 52 % 0.00 in /  0 mm
11:38 48.3 °F /  9.1 °C 31.0 °F /  -0.6 °C 30.04 in /  1017.2 hPa NW 3.0 mph /  4.8 km/h 16.1 mph /  25.9 km/h 51 % 0.00 in /  0 mm
11:44 48.3 °F /  9.1 °C 30.5 °F /  -0.8 °C 30.03 in /  1016.8 hPa SW 9.6 mph /  15.4 km/h 19.6 mph /  31.5 km/h 50 % 0.00 in /  0 mm
11:49 48.3 °F /  9.1 °C 31.5 °F /  -0.3 °C 30.03 in /  1016.8 hPa WNW 6.9 mph /  11.1 km/h 15.0 mph /  24.1 km/h 52 % 0.00 in /  0 mm
11:54 48.4 °F /  9.1 °C 31.6 °F /  -0.2 °C 30.03 in /  1016.8 hPa WNW 8.1 mph /  13 km/h 12.7 mph /  20.4 km/h 52 % 0.00 in /  0 mm
11:58 48.4 °F /  9.1 °C 30.1 °F /  -1.1 °C 30.03 in /  1016.8 hPa NW 10.8 mph /  17.4 km/h 20.0 mph /  32.2 km/h 49 % 0.00 in /  0 mm
12:03 48.4 °F /  9.1 °C 30.6 °F /  -0.8 °C 30.04 in /  1017.2 hPa West 6.4 mph /  10.3 km/h 15.0 mph /  24.1 km/h 50 % 0.00 in /  0 mm
12:09 48.5 °F /  9.2 °C 30.2 °F /  -1 °C 30.04 in /  1017.2 hPa West 7.6 mph /  12.2 km/h 16.1 mph /  25.9 km/h 49 % 0.00 in /  0 mm
12:14 48.6 °F /  9.2 °C 30.8 °F /  -0.7 °C 30.04 in /  1017.2 hPa NW 9.5 mph /  15.3 km/h 17.3 mph /  27.8 km/h 50 % 0.00 in /  0 mm
12:19 48.7 °F /  9.3 °C 31.8 °F /  -0.1 °C 30.04 in /  1017.2 hPa West 7.8 mph /  12.6 km/h 15.0 mph /  24.1 km/h 52 % 0.00 in /  0 mm
12:24 48.8 °F /  9.3 °C 31.0 °F /  -0.6 °C 30.04 in /  1017.2 hPa WSW 6.4 mph /  10.3 km/h 12.7 mph /  20.4 km/h 50 % 0.00 in /  0 mm
12:29 48.8 °F /  9.3 °C 30.5 °F /  -0.8 °C 30.04 in /  1017.2 hPa WNW 8.5 mph /  13.7 km/h 18.4 mph /  29.6 km/h 49 % 0.00 in /  0 mm
12:34 48.8 °F /  9.3 °C 31.0 °F /  -0.6 °C 30.04 in /  1017.2 hPa NNW 8.3 mph /  13.4 km/h 13.8 mph /  22.2 km/h 50 % 0.00 in /  0 mm
12:39 48.8 °F /  9.3 °C 31.0 °F /  -0.6 °C 30.04 in /  1017.2 hPa WSW 6.9 mph /  11.1 km/h 13.8 mph /  22.2 km/h 50 % 0.00 in /  0 mm
12:44 48.9 °F /  9.4 °C 31.5 °F /  -0.3 °C 30.04 in /  1017.2 hPa WNW 5.1 mph /  8.2 km/h 11.5 mph /  18.5 km/h 51 % 0.00 in /  0 mm
12:49 49.0 °F /  9.4 °C 31.6 °F /  -0.2 °C 30.04 in /  1017.2 hPa WNW 6.0 mph /  9.7 km/h 15.0 mph /  24.1 km/h 51 % 0.00 in /  0 mm
12:54 49.0 °F /  9.4 °C 32.6 °F /  0.3 °C 30.04 in /  1017.2 hPa NW 7.1 mph /  11.4 km/h 11.5 mph /  18.5 km/h 53 % 0.00 in /  0 mm
12:59 49.1 °F /  9.5 °C 32.7 °F /  0.4 °C 30.04 in /  1017.2 hPa West 5.5 mph /  8.9 km/h 11.5 mph /  18.5 km/h 53 % 0.00 in /  0 mm
13:04 49.3 °F /  9.6 °C 31.4 °F /  -0.3 °C 30.04 in /  1017.2 hPa West 6.8 mph /  10.9 km/h 16.1 mph /  25.9 km/h 50 % 0.00 in /  0 mm
13:09 49.3 °F /  9.6 °C 31.4 °F /  -0.3 °C 30.04 in /  1017.2 hPa NW 10.7 mph /  17.2 km/h 17.3 mph /  27.8 km/h 50 % 0.00 in /  0 mm
13:14 49.4 °F /  9.7 °C 31.5 °F /  -0.3 °C 30.04 in /  1017.2 hPa West 8.1 mph /  13 km/h 13.8 mph /  22.2 km/h 50 % 0.00 in /  0 mm
13:19 49.4 °F /  9.7 °C 31.5 °F /  -0.3 °C 30.04 in /  1017.2 hPa WNW 6.7 mph /  10.8 km/h 9.2 mph /  14.8 km/h 50 % 0.00 in /  0 mm
13:24 49.5 °F /  9.7 °C 31.6 °F /  -0.2 °C 30.04 in /  1017.2 hPa WSW 7.4 mph /  11.9 km/h 13.0 mph /  20.9 km/h 50 % 0.00 in /  0 mm
13:29 49.6 °F /  9.8 °C 31.7 °F /  -0.2 °C 30.04 in /  1017.2 hPa WNW 5.8 mph /  9.3 km/h 9.0 mph /  14.5 km/h 50 % 0.00 in /  0 mm
13:34 49.7 °F /  9.8 °C 31.8 °F /  -0.1 °C 30.04 in /  1017.2 hPa WSW 7.9 mph /  12.7 km/h 11.5 mph /  18.5 km/h 50 % 0.00 in /  0 mm
13:39 49.8 °F /  9.9 °C 30.9 °F /  -0.6 °C 30.04 in /  1017.2 hPa West 8.1 mph /  13 km/h 11.5 mph /  18.5 km/h 48 % 0.00 in /  0 mm
13:44 49.9 °F /  9.9 °C 31.5 °F /  -0.3 °C 30.04 in /  1017.2 hPa WSW 6.7 mph /  10.8 km/h 13.8 mph /  22.2 km/h 49 % 0.00 in /  0 mm
13:50 50.0 °F /  10 °C 31.6 °F /  -0.2 °C 30.04 in /  1017.2 hPa NW 8.5 mph /  13.7 km/h 10.4 mph /  16.7 km/h 49 % 0.00 in /  0 mm
13:55 50.0 °F /  10 °C 31.6 °F /  -0.2 °C 30.04 in /  1017.2 hPa SW 6.4 mph /  10.3 km/h 11.5 mph /  18.5 km/h 49 % 0.00 in /  0 mm
14:00 50.0 °F /  10 °C 31.6 °F /  -0.2 °C 30.04 in /  1017.2 hPa NW 6.1 mph /  9.8 km/h 12.0 mph /  19.3 km/h 49 % 0.00 in /  0 mm
14:05 50.0 °F /  10 °C 31.6 °F /  -0.2 °C 30.04 in /  1017.2 hPa NNW 8.2 mph /  13.2 km/h 11.5 mph /  18.5 km/h 49 % 0.00 in /  0 mm
14:10 49.9 °F /  9.9 °C 31.5 °F /  -0.3 °C 30.05 in /  1017.5 hPa NW 6.3 mph /  10.1 km/h 12.0 mph /  19.3 km/h 49 % 0.00 in /  0 mm
14:14 49.7 °F /  9.8 °C 31.8 °F /  -0.1 °C 30.05 in /  1017.5 hPa WNW 3.3 mph /  5.3 km/h 6.9 mph /  11.1 km/h 50 % 0.00 in /  0 mm
14:20 49.6 °F /  9.8 °C 31.7 °F /  -0.2 °C 30.05 in /  1017.5 hPa WSW 6.9 mph /  11.1 km/h 13.8 mph /  22.2 km/h 50 % 0.00 in /  0 mm
14:25 49.4 °F /  9.7 °C 31.0 °F /  -0.6 °C 30.05 in /  1017.5 hPa WNW 6.9 mph /  11.1 km/h 12.7 mph /  20.4 km/h 49 % 0.00 in /  0 mm
14:30 49.2 °F /  9.6 °C 31.3 °F /  -0.4 °C 30.05 in /  1017.5 hPa WSW 3.1 mph /  5 km/h 6.9 mph /  11.1 km/h 50 % 0.00 in /  0 mm
14:35 49.1 °F /  9.5 °C 31.2 °F /  -0.4 °C 30.05 in /  1017.5 hPa WNW 6.0 mph /  9.7 km/h 11.5 mph /  18.5 km/h 50 % 0.00 in /  0 mm
14:40 48.9 °F /  9.4 °C 31.1 °F /  -0.5 °C 30.05 in /  1017.5 hPa WNW 8.4 mph /  13.5 km/h 14.0 mph /  22.5 km/h 50 % 0.00 in /  0 mm
14:45 48.8 °F /  9.3 °C 31.0 °F /  -0.6 °C 30.05 in /  1017.5 hPa WNW 3.2 mph /  5.1 km/h 11.5 mph /  18.5 km/h 50 % 0.00 in /  0 mm
14:50 48.8 °F /  9.3 °C 31.0 °F /  -0.6 °C 30.05 in /  1017.5 hPa NW 7.6 mph /  12.2 km/h 17.3 mph /  27.8 km/h 50 % 0.00 in /  0 mm
14:55 48.7 °F /  9.3 °C 30.4 °F /  -0.9 °C 30.06 in /  1017.8 hPa WNW 4.2 mph /  6.8 km/h 12.7 mph /  20.4 km/h 49 % 0.00 in /  0 mm
15:00 48.7 °F /  9.3 °C 29.9 °F /  -1.2 °C 30.06 in /  1017.8 hPa WNW 6.8 mph /  10.9 km/h 13.8 mph /  22.2 km/h 48 % 0.00 in /  0 mm
15:02 48.7 °F /  9.3 °C 30.4 °F /  -0.9 °C 30.06 in /  1017.8 hPa NW 4.6 mph /  7.4 km/h 10.4 mph /  16.7 km/h 49 % 0.00 in /  0 mm
15:07 48.7 °F /  9.3 °C 30.9 °F /  -0.6 °C 30.07 in /  1018.2 hPa NW 3.3 mph /  5.3 km/h 5.8 mph /  9.3 km/h 50 % 0.00 in /  0 mm
15:12 48.7 °F /  9.3 °C 31.4 °F /  -0.3 °C 30.07 in /  1018.2 hPa WNW 4.4 mph /  7.1 km/h 10.4 mph /  16.7 km/h 51 % 0.00 in /  0 mm
15:17 48.7 °F /  9.3 °C 29.9 °F /  -1.2 °C 30.08 in /  1018.5 hPa WNW 8.9 mph /  14.3 km/h 16.0 mph /  25.7 km/h 48 % 0.00 in /  0 mm
15:22 48.7 °F /  9.3 °C 30.4 °F /  -0.9 °C 30.08 in /  1018.5 hPa WNW 5.5 mph /  8.9 km/h 12.7 mph /  20.4 km/h 49 % 0.00 in /  0 mm
15:27 48.6 °F /  9.2 °C 30.3 °F /  -0.9 °C 30.08 in /  1018.5 hPa WNW 6.7 mph /  10.8 km/h 11.5 mph /  18.5 km/h 49 % 0.00 in /  0 mm
15:32 48.6 °F /  9.2 °C 30.8 °F /  -0.7 °C 30.08 in /  1018.5 hPa WNW 3.7 mph /  6 km/h 9.2 mph /  14.8 km/h 50 % 0.00 in /  0 mm
15:37 48.6 °F /  9.2 °C 30.8 °F /  -0.7 °C 30.09 in /  1018.8 hPa West 5.0 mph /  8 km/h 9.2 mph /  14.8 km/h 50 % 0.00 in /  0 mm
15:42 48.5 °F /  9.2 °C 31.2 °F /  -0.4 °C 30.09 in /  1018.8 hPa West 5.3 mph /  8.5 km/h 11.5 mph /  18.5 km/h 51 % 0.00 in /  0 mm
15:48 48.5 °F /  9.2 °C 30.7 °F /  -0.7 °C 30.09 in /  1018.8 hPa WNW 4.3 mph /  6.9 km/h 11.5 mph /  18.5 km/h 50 % 0.00 in /  0 mm
15:53 48.5 °F /  9.2 °C 30.2 °F /  -1 °C 30.09 in /  1018.8 hPa WNW 4.5 mph /  7.2 km/h 8.1 mph /  13 km/h 49 % 0.00 in /  0 mm
15:58 48.3 °F /  9.1 °C 30.5 °F /  -0.8 °C 30.09 in /  1018.8 hPa NW 6.1 mph /  9.8 km/h 11.5 mph /  18.5 km/h 50 % 0.00 in /  0 mm
16:03 48.3 °F /  9.1 °C 30.5 °F /  -0.8 °C 30.09 in /  1018.8 hPa West 3.5 mph /  5.6 km/h 10.4 mph /  16.7 km/h 50 % 0.00 in /  0 mm
16:08 48.2 °F /  9 °C 29.9 °F /  -1.2 °C 30.10 in /  1019.2 hPa WNW 6.9 mph /  11.1 km/h 12.7 mph /  20.4 km/h 49 % 0.00 in /  0 mm
16:13 48.1 °F /  8.9 °C 29.8 °F /  -1.2 °C 30.10 in /  1019.2 hPa WNW 7.9 mph /  12.7 km/h 12.7 mph /  20.4 km/h 49 % 0.00 in /  0 mm
16:18 48.1 °F /  8.9 °C 29.3 °F /  -1.5 °C 30.10 in /  1019.2 hPa WNW 4.0 mph /  6.4 km/h 9.2 mph /  14.8 km/h 48 % 0.00 in /  0 mm
16:23 48.1 °F /  8.9 °C 29.8 °F /  -1.2 °C 30.11 in /  1019.5 hPa WNW 4.6 mph /  7.4 km/h 10.4 mph /  16.7 km/h 49 % 0.00 in /  0 mm
16:28 48.0 °F /  8.9 °C 29.7 °F /  -1.3 °C 30.10 in /  1019.2 hPa NW 4.0 mph /  6.4 km/h 9.2 mph /  14.8 km/h 49 % 0.00 in /  0 mm
16:33 47.9 °F /  8.8 °C 30.1 °F /  -1.1 °C 30.11 in /  1019.5 hPa NW 3.6 mph /  5.8 km/h 10.0 mph /  16.1 km/h 50 % 0.00 in /  0 mm
16:38 47.9 °F /  8.8 °C 31.1 °F /  -0.5 °C 30.11 in /  1019.5 hPa WNW 3.2 mph /  5.1 km/h 6.9 mph /  11.1 km/h 52 % 0.00 in /  0 mm
16:43 47.8 °F /  8.8 °C 30.5 °F /  -0.8 °C 30.12 in /  1019.9 hPa West 5.4 mph /  8.7 km/h 11.5 mph /  18.5 km/h 51 % 0.00 in /  0 mm
16:48 47.7 °F /  8.7 °C 30.9 °F /  -0.6 °C 30.12 in /  1019.9 hPa WNW 5.8 mph /  9.3 km/h 8.1 mph /  13 km/h 52 % 0.00 in /  0 mm
16:53 47.7 °F /  8.7 °C 30.0 °F /  -1.1 °C 30.12 in /  1019.9 hPa West 5.4 mph /  8.7 km/h 13.0 mph /  20.9 km/h 50 % 0.00 in /  0 mm
16:58 47.7 °F /  8.7 °C 30.4 °F /  -0.9 °C 30.12 in /  1019.9 hPa NW 3.1 mph /  5 km/h 6.9 mph /  11.1 km/h 51 % 0.00 in /  0 mm
17:03 47.7 °F /  8.7 °C 30.9 °F /  -0.6 °C 30.13 in /  1020.2 hPa WNW 4.6 mph /  7.4 km/h 11.5 mph /  18.5 km/h 52 % 0.00 in /  0 mm
17:08 47.7 °F /  8.7 °C 30.9 °F /  -0.6 °C 30.13 in /  1020.2 hPa WNW 5.3 mph /  8.5 km/h 10.4 mph /  16.7 km/h 52 % 0.00 in /  0 mm
17:13 47.6 °F /  8.7 °C 29.9 °F /  -1.2 °C 30.13 in /  1020.2 hPa NW 4.8 mph /  7.7 km/h 11.5 mph /  18.5 km/h 50 % 0.00 in /  0 mm
17:18 47.7 °F /  8.7 °C 30.9 °F /  -0.6 °C 30.13 in /  1020.2 hPa North 6.0 mph /  9.7 km/h 10.4 mph /  16.7 km/h 52 % 0.00 in /  0 mm
17:23 47.6 °F /  8.7 °C 30.8 °F /  -0.7 °C 30.13 in /  1020.2 hPa NW 5.6 mph /  9 km/h 10.4 mph /  16.7 km/h 52 % 0.00 in /  0 mm
17:28 47.5 °F /  8.6 °C 30.7 °F /  -0.7 °C 30.14 in /  1020.5 hPa NW 3.0 mph /  4.8 km/h 10.0 mph /  16.1 km/h 52 % 0.00 in /  0 mm
17:34 47.4 °F /  8.6 °C 30.6 °F /  -0.8 °C 30.15 in /  1020.9 hPa NNW 3.9 mph /  6.3 km/h 12.7 mph /  20.4 km/h 52 % 0.00 in /  0 mm
17:39 47.2 °F /  8.4 °C 30.5 °F /  -0.8 °C 30.14 in /  1020.5 hPa NW 1.9 mph /  3.1 km/h 11.5 mph /  18.5 km/h 52 % 0.00 in /  0 mm
17:44 47.1 °F /  8.4 °C 30.4 °F /  -0.9 °C 30.15 in /  1020.9 hPa West 4.1 mph /  6.6 km/h 10.4 mph /  16.7 km/h 52 % 0.00 in /  0 mm
17:49 47.0 °F /  8.3 °C 30.3 °F /  -0.9 °C 30.15 in /  1020.9 hPa WNW 5.5 mph /  8.9 km/h 12.7 mph /  20.4 km/h 52 % 0.00 in /  0 mm
17:54 46.9 °F /  8.3 °C 30.2 °F /  -1 °C 30.16 in /  1021.2 hPa NW 6.6 mph /  10.6 km/h 13.8 mph /  22.2 km/h 52 % 0.00 in /  0 mm
17:59 46.8 °F /  8.2 °C 30.1 °F /  -1.1 °C 30.17 in /  1021.6 hPa NW 3.0 mph /  4.8 km/h 5.8 mph /  9.3 km/h 52 % 0.00 in /  0 mm
18:04 46.7 °F /  8.2 °C 30.9 °F /  -0.6 °C 30.17 in /  1021.6 hPa NNW 5.4 mph /  8.7 km/h 11.5 mph /  18.5 km/h 54 % 0.00 in /  0 mm
18:09 46.7 °F /  8.2 °C 30.5 °F /  -0.8 °C 30.17 in /  1021.6 hPa North 6.5 mph /  10.5 km/h 13.0 mph /  20.9 km/h 53 % 0.00 in /  0 mm
18:14 46.5 °F /  8.1 °C 30.3 °F /  -0.9 °C 30.17 in /  1021.6 hPa North 6.5 mph /  10.5 km/h 12.7 mph /  20.4 km/h 53 % 0.00 in /  0 mm
18:19 46.3 °F /  7.9 °C 30.1 °F /  -1.1 °C 30.18 in /  1021.9 hPa NW 6.2 mph /  10 km/h 11.5 mph /  18.5 km/h 53 % 0.00 in /  0 mm
18:24 46.2 °F /  7.9 °C 29.5 °F /  -1.4 °C 30.19 in /  1022.2 hPa NW 6.6 mph /  10.6 km/h 11.5 mph /  18.5 km/h 52 % 0.00 in /  0 mm
18:29 46.0 °F /  7.8 °C 29.3 °F /  -1.5 °C 30.19 in /  1022.2 hPa WNW 3.5 mph /  5.6 km/h 9.2 mph /  14.8 km/h 52 % 0.00 in /  0 mm
18:34 45.9 °F /  7.7 °C 29.2 °F /  -1.6 °C 30.20 in /  1022.6 hPa NNW 4.4 mph /  7.1 km/h 10.4 mph /  16.7 km/h 52 % 0.00 in /  0 mm
18:39 45.8 °F /  7.7 °C 29.2 °F /  -1.6 °C 30.20 in /  1022.6 hPa NW 4.8 mph /  7.7 km/h 10.4 mph /  16.7 km/h 52 % 0.00 in /  0 mm
18:44 45.6 °F /  7.6 °C 29.0 °F /  -1.7 °C 30.20 in /  1022.6 hPa North 7.5 mph /  12.1 km/h 8.0 mph /  12.9 km/h 52 % 0.00 in /  0 mm
18:49 45.5 °F /  7.5 °C 29.3 °F /  -1.5 °C 30.21 in /  1022.9 hPa NNW 5.1 mph /  8.2 km/h 7.0 mph /  11.3 km/h 53 % 0.00 in /  0 mm
18:54 45.4 °F /  7.4 °C 29.3 °F /  -1.5 °C 30.21 in /  1022.9 hPa NW 2.8 mph /  4.5 km/h 10.4 mph /  16.7 km/h 53 % 0.00 in /  0 mm
19:00 45.3 °F /  7.4 °C 29.2 °F /  -1.6 °C 30.21 in /  1022.9 hPa NNW 5.9 mph /  9.5 km/h 11.5 mph /  18.5 km/h 53 % 0.00 in /  0 mm
19:05 45.3 °F /  7.4 °C 29.2 °F /  -1.6 °C 30.21 in /  1022.9 hPa WNW 5.9 mph /  9.5 km/h 11.5 mph /  18.5 km/h 53 % 0.00 in /  0 mm
19:10 45.2 °F /  7.3 °C 29.1 °F /  -1.6 °C 30.21 in /  1022.9 hPa NW 3.5 mph /  5.6 km/h 6.9 mph /  11.1 km/h 53 % 0.00 in /  0 mm
19:15 45.2 °F /  7.3 °C 29.5 °F /  -1.4 °C 30.22 in /  1023.2 hPa NW 4.1 mph /  6.6 km/h 10.4 mph /  16.7 km/h 54 % 0.00 in /  0 mm
19:20 45.1 °F /  7.3 °C 29.9 °F /  -1.2 °C 30.22 in /  1023.2 hPa WNW 2.5 mph /  4 km/h 6.0 mph /  9.7 km/h 55 % 0.00 in /  0 mm
19:25 45.1 °F /  7.3 °C 29.0 °F /  -1.7 °C 30.22 in /  1023.2 hPa NNW 4.1 mph /  6.6 km/h 5.8 mph /  9.3 km/h 53 % 0.00 in /  0 mm
19:30 45.0 °F /  7.2 °C 28.4 °F /  -2 °C 30.22 in /  1023.2 hPa NNE 4.9 mph /  7.9 km/h 11.5 mph /  18.5 km/h 52 % 0.00 in /  0 mm
19:35 44.9 °F /  7.2 °C 28.3 °F /  -2.1 °C 30.22 in /  1023.2 hPa NNW 4.9 mph /  7.9 km/h 9.2 mph /  14.8 km/h 52 % 0.00 in /  0 mm
19:40 44.8 °F /  7.1 °C 27.8 °F /  -2.3 °C 30.23 in /  1023.6 hPa North 3.7 mph /  6 km/h 8.1 mph /  13 km/h 51 % 0.00 in /  0 mm
19:45 44.7 °F /  7.1 °C 28.1 °F /  -2.2 °C 30.22 in /  1023.2 hPa NW 5.2 mph /  8.4 km/h 14.0 mph /  22.5 km/h 52 % 0.00 in /  0 mm
19:50 44.7 °F /  7.1 °C 28.6 °F /  -1.9 °C 30.23 in /  1023.6 hPa NW 2.6 mph /  4.2 km/h 5.0 mph /  8 km/h 53 % 0.00 in /  0 mm
19:55 44.6 °F /  7 °C 28.0 °F /  -2.2 °C 30.23 in /  1023.6 hPa NNW 5.2 mph /  8.4 km/h 8.1 mph /  13 km/h 52 % 0.00 in /  0 mm
20:00 44.5 °F /  6.9 °C 28.4 °F /  -2 °C 30.23 in /  1023.6 hPa NNW 2.7 mph /  4.3 km/h 4.6 mph /  7.4 km/h 53 % 0.00 in /  0 mm
20:05 44.3 °F /  6.8 °C 28.2 °F /  -2.1 °C 30.23 in /  1023.6 hPa NNW 0.9 mph /  1.4 km/h 3.5 mph /  5.6 km/h 53 % 0.00 in /  0 mm
20:10 44.2 °F /  6.8 °C 28.6 °F /  -1.9 °C 30.24 in /  1023.9 hPa NNE 1.3 mph /  2.1 km/h 4.6 mph /  7.4 km/h 54 % 0.00 in /  0 mm
20:15 44.0 °F /  6.7 °C 28.4 °F /  -2 °C 30.24 in /  1023.9 hPa NW 1.0 mph /  1.6 km/h 2.3 mph /  3.7 km/h 54 % 0.00 in /  0 mm
20:20 43.8 °F /  6.6 °C 27.8 °F /  -2.3 °C 30.24 in /  1023.9 hPa NNW 3.4 mph /  5.5 km/h 7.0 mph /  11.3 km/h 53 % 0.00 in /  0 mm
20:25 43.7 °F /  6.5 °C 28.1 °F /  -2.2 °C 30.24 in /  1023.9 hPa North 3.1 mph /  5 km/h 4.6 mph /  7.4 km/h 54 % 0.00 in /  0 mm
20:30 43.5 °F /  6.4 °C 28.4 °F /  -2 °C 30.25 in /  1024.3 hPa NNE 3.8 mph /  6.1 km/h 5.8 mph /  9.3 km/h 55 % 0.00 in /  0 mm
20:35 43.4 °F /  6.3 °C 27.8 °F /  -2.3 °C 30.25 in /  1024.3 hPa North 2.7 mph /  4.3 km/h 8.0 mph /  12.9 km/h 54 % 0.00 in /  0 mm
20:40 43.3 °F /  6.3 °C 27.8 °F /  -2.3 °C 30.25 in /  1024.3 hPa NNE 5.7 mph /  9.2 km/h 9.0 mph /  14.5 km/h 54 % 0.00 in /  0 mm
20:45 43.2 °F /  6.2 °C 26.3 °F /  -3.2 °C 30.26 in /  1024.6 hPa North 5.1 mph /  8.2 km/h 8.1 mph /  13 km/h 51 % 0.00 in /  0 mm
20:50 43.1 °F /  6.2 °C 26.7 °F /  -2.9 °C 30.26 in /  1024.6 hPa NNW 2.4 mph /  3.9 km/h 6.9 mph /  11.1 km/h 52 % 0.00 in /  0 mm
20:55 43.0 °F /  6.1 °C 27.0 °F /  -2.8 °C 30.26 in /  1024.6 hPa NNW 2.9 mph /  4.7 km/h 8.1 mph /  13 km/h 53 % 0.00 in /  0 mm
21:00 42.9 °F /  6.1 °C 26.5 °F /  -3.1 °C 30.26 in /  1024.6 hPa North 4.0 mph /  6.4 km/h 6.0 mph /  9.7 km/h 52 % 0.00 in /  0 mm
21:05 42.8 °F /  6 °C 26.4 °F /  -3.1 °C 30.26 in /  1024.6 hPa NNW 6.1 mph /  9.8 km/h 10.4 mph /  16.7 km/h 52 % 0.00 in /  0 mm
21:10 42.6 °F /  5.9 °C 26.2 °F /  -3.2 °C 30.26 in /  1024.6 hPa NNW 3.4 mph /  5.5 km/h 6.9 mph /  11.1 km/h 52 % 0.00 in /  0 mm
21:15 42.5 °F /  5.8 °C 26.6 °F /  -3 °C 30.26 in /  1024.6 hPa North 3.7 mph /  6 km/h 6.9 mph /  11.1 km/h 53 % 0.00 in /  0 mm
21:21 42.4 °F /  5.8 °C 26.9 °F /  -2.8 °C 30.26 in /  1024.6 hPa North 5.0 mph /  8 km/h 8.0 mph /  12.9 km/h 54 % 0.00 in /  0 mm
21:26 42.3 °F /  5.7 °C 27.3 °F /  -2.6 °C 30.27 in /  1024.9 hPa NNE 3.0 mph /  4.8 km/h 10.0 mph /  16.1 km/h 55 % 0.00 in /  0 mm
21:31 42.2 °F /  5.7 °C 27.2 °F /  -2.7 °C 30.27 in /  1024.9 hPa NNE 2.0 mph /  3.2 km/h 9.0 mph /  14.5 km/h 55 % 0.00 in /  0 mm
21:36 42.1 °F /  5.6 °C 26.6 °F /  -3 °C 30.27 in /  1024.9 hPa NNE 6.0 mph /  9.7 km/h 10.0 mph /  16.1 km/h 54 % 0.00 in /  0 mm
21:41 42.0 °F /  5.6 °C 27.0 °F /  -2.8 °C 30.27 in /  1024.9 hPa North 4.0 mph /  6.4 km/h 5.8 mph /  9.3 km/h 55 % 0.00 in /  0 mm
21:46 41.9 °F /  5.5 °C 26.0 °F /  -3.3 °C 30.27 in /  1024.9 hPa North 5.0 mph /  8 km/h 8.0 mph /  12.9 km/h 53 % 0.00 in /  0 mm
21:51 41.8 °F /  5.4 °C 26.8 °F /  -2.9 °C 30.27 in /  1024.9 hPa North 3.0 mph /  4.8 km/h 7.0 mph /  11.3 km/h 55 % 0.00 in /  0 mm
21:56 41.6 °F /  5.3 °C 26.6 °F /  -3 °C 30.27 in /  1024.9 hPa North 3.0 mph /  4.8 km/h 7.0 mph /  11.3 km/h 55 % 0.00 in /  0 mm
22:01 41.4 °F /  5.2 °C 26.4 °F /  -3.1 °C 30.28 in /  1025.3 hPa North 2.9 mph /  4.7 km/h 4.6 mph /  7.4 km/h 55 % 0.00 in /  0 mm
22:06 41.3 °F /  5.2 °C 26.8 °F /  -2.9 °C 30.28 in /  1025.3 hPa North 3.6 mph /  5.8 km/h 5.8 mph /  9.3 km/h 56 % 0.00 in /  0 mm
22:11 41.2 °F /  5.1 °C 27.1 °F /  -2.7 °C 30.29 in /  1025.6 hPa North 4.1 mph /  6.6 km/h 7.0 mph /  11.3 km/h 57 % 0.00 in /  0 mm
22:16 41.0 °F /  5 °C 26.9 °F /  -2.8 °C 30.29 in /  1025.6 hPa NNE 3.3 mph /  5.3 km/h 5.8 mph /  9.3 km/h 57 % 0.00 in /  0 mm
22:21 40.9 °F /  4.9 °C 26.8 °F /  -2.9 °C 30.29 in /  1025.6 hPa North 3.0 mph /  4.8 km/h 3.5 mph /  5.6 km/h 57 % 0.00 in /  0 mm
22:26 40.8 °F /  4.9 °C 26.7 °F /  -2.9 °C 30.29 in /  1025.6 hPa NNW 3.0 mph /  4.8 km/h 4.6 mph /  7.4 km/h 57 % 0.00 in /  0 mm
22:31 40.7 °F /  4.8 °C 27.5 °F /  -2.5 °C 30.29 in /  1025.6 hPa NNE 3.0 mph /  4.8 km/h 7.0 mph /  11.3 km/h 59 % 0.00 in /  0 mm
22:36 40.5 °F /  4.7 °C 27.7 °F /  -2.4 °C 30.30 in /  1026 hPa NNE 3.9 mph /  6.3 km/h 8.1 mph /  13 km/h 60 % 0.00 in /  0 mm
22:41 40.3 °F /  4.6 °C 27.1 °F /  -2.7 °C 30.30 in /  1026 hPa NNW 4.6 mph /  7.4 km/h 6.9 mph /  11.1 km/h 59 % 0.00 in /  0 mm
22:46 40.2 °F /  4.6 °C 27.0 °F /  -2.8 °C 30.30 in /  1026 hPa NE 4.2 mph /  6.8 km/h 8.0 mph /  12.9 km/h 59 % 0.00 in /  0 mm
22:51 40.0 °F /  4.4 °C 26.8 °F /  -2.9 °C 30.31 in /  1026.3 hPa NNE 3.7 mph /  6 km/h 8.0 mph /  12.9 km/h 59 % 0.00 in /  0 mm
22:56 40.0 °F /  4.4 °C 26.8 °F /  -2.9 °C 30.31 in /  1026.3 hPa NNE 4.6 mph /  7.4 km/h 8.1 mph /  13 km/h 59 % 0.00 in /  0 mm
23:01 39.8 °F /  4.3 °C 26.6 °F /  -3 °C 30.31 in /  1026.3 hPa NNE 4.0 mph /  6.4 km/h 8.1 mph /  13 km/h 59 % 0.00 in /  0 mm
23:06 39.7 °F /  4.3 °C 26.5 °F /  -3.1 °C 30.31 in /  1026.3 hPa NNE 3.7 mph /  6 km/h 4.6 mph /  7.4 km/h 59 % 0.00 in /  0 mm
23:11 39.7 °F /  4.3 °C 26.5 °F /  -3.1 °C 30.31 in /  1026.3 hPa North 3.5 mph /  5.6 km/h 6.9 mph /  11.1 km/h 59 % 0.00 in /  0 mm
23:16 39.6 °F /  4.2 °C 26.8 °F /  -2.9 °C 30.31 in /  1026.3 hPa NE 3.6 mph /  5.8 km/h 5.8 mph /  9.3 km/h 60 % 0.00 in /  0 mm
23:22 39.5 °F /  4.2 °C 26.8 °F /  -2.9 °C 30.31 in /  1026.3 hPa NNE 4.9 mph /  7.9 km/h 6.9 mph /  11.1 km/h 60 % 0.00 in /  0 mm
23:27 39.4 °F /  4.1 °C 27.1 °F /  -2.7 °C 30.31 in /  1026.3 hPa NNE 3.3 mph /  5.3 km/h 4.6 mph /  7.4 km/h 61 % 0.00 in /  0 mm
23:32 39.3 °F /  4.1 °C 27.0 °F /  -2.8 °C 30.31 in /  1026.3 hPa North 3.6 mph /  5.8 km/h 6.9 mph /  11.1 km/h 61 % 0.00 in /  0 mm
23:37 39.2 °F /  4 °C 26.5 °F /  -3.1 °C 30.32 in /  1026.6 hPa North 0.8 mph /  1.3 km/h 3.5 mph /  5.6 km/h 60 % 0.00 in /  0 mm
23:42 39.1 °F /  3.9 °C 26.4 °F /  -3.1 °C 30.32 in /  1026.6 hPa North 0.3 mph /  0.5 km/h 3.5 mph /  5.6 km/h 60 % 0.00 in /  0 mm
23:47 39.0 °F /  3.9 °C 25.9 °F /  -3.4 °C 30.32 in /  1026.6 hPa North 0.6 mph /  1 km/h 2.0 mph /  3.2 km/h 59 % 0.00 in /  0 mm
23:52 38.9 °F /  3.8 °C 26.2 °F /  -3.2 °C 30.32 in /  1026.6 hPa North 2.4 mph /  3.9 km/h 3.5 mph /  5.6 km/h 60 % 0.00 in /  0 mm
23:57 38.8 °F /  3.8 °C 26.1 °F /  -3.3 °C 30.32 in /  1026.6 hPa North 3.0 mph /  4.8 km/h 3.5 mph /  5.6 km/h 60 % 0.00 in /  0 mm
Crab Meadow Weather
Compliments of Weather Underground - 3 mb

Script developed by  Jim McMurry - jmcmurry@mwt.net Adapted for the template by  Wim van der Kuil - Leuven-Template.eu

Hurricanes: Hurricanes are classified into five categories, based on their wind speeds and potential to cause damage. * Category One -- Winds 74-95 miles per hour * Category Two -- Winds 96-110 miles per hour * Category Three -- Winds 111-130 miles per hour * Category Four -- Winds 131-155 miles per hour * Category Five -- Winds greater than 155 miles per hour.